User: anonymous   Login
Location: Ottawa
(45.4170°N, 75.7000°W)
Time: 17:32:17
(UTC-04:00)
Language:

Aureole 3 Rocket - Orbit

View from above orbital plane
View from above orbital plane
View from above satellite
View from above satellite

Ground track
Ground track

The orbit data is extracted from the following two-line orbital elements,

1 12849U 81094B   17229.32744779  .00000113  00000-0  96405-5 0  9994
2 12849  82.4937 119.8408 0901877 250.6200  99.5397 13.50182693750177
Epoch (UTC): 17 August 2017 07:51:31
Eccentricity: 0.0901877
inclination: 82.4937°
perigee height: 400 km
apogee height: 1743 km
right ascension of ascending node: 119.8408°
argument of perigee: 250.6200°
revolutions per day: 13.50182693
mean anomaly at epoch: 99.5397°
orbit number at epoch: 75017

The dashed part of the orbit path shows where the satellite is in the earth's shadow,  

DLR